Regional Weather Roundup
Issued by NWS Goodland, KS

Home | Current Version | Previous Version | Text Only | Print | Product List | Glossary Off
Versions: 1 2 3 4 5 6 7 8 9 10 11 12 13 14 15 16 17 18 19 20 21 22 23 24 25 26 27 28 29 30 31 32 33 34 35 36 37 38 39 40 41 42 43 44 45 46 47 48 49 50

000
ASUS43 KGLD 160459
RWRGLD

GOODLAND FORECAST AREA HOURLY WEATHER ROUNDUP
NATIONAL WEATHER SERVICE GOODLAND KS
1100 PM MDT TUE APR 15 2014

...OFFICIAL OBSERVATIONS...

CITY           SKY/WX    TMP DP  RH WIND       PRES   REMARKS
GOODLAND KS    PTCLDY    44  26  49 S12       29.68F
HILL CITY KS   PTCLDY    54  19  25 S17G25    29.73F
IMPERIAL NEB   PTCLDY    49  27  42 S15       29.64F
MCCOOK NEB     PTCLDY    50  29  44 S17       29.67F
AKRON CO       CLOUDY    47  28  47 S12       29.65F
BURLINGTON CO  PTCLDY    44  24  45 S15       29.66F
LIMON CO       PTCLDY    35  26  69 CALM      29.71F
$$

...UNOFFICIAL OBSERVATIONS...

CITY           SKY/WX    TMP DP  RH WIND       PRES   REMARKS
COLBY KS       CLEAR     48  28  46 SE15      29.70F
GOVE KS          N/A     50  32  50 S12G18      N/A
LENORA KS        N/A     52  32  46 S20         N/A
LEOTI KS         N/A     49  32  52 S7          N/A
NORTON KS      CLEAR     52  25  35 S13       29.70F
SHARON SPRINGS   N/A     44  26  49 S12         N/A
WAKEENEY KS      N/A     53  19  26 MISG        N/A
KIT CARSON CO    N/A     47  25  41 MISG        N/A
$$



USA.gov is the U.S. government's official web portal to all federal, state and local government web resources and services.